When you browse on this site, cookies collect data to enhance your experience and personalize the content and advertising you see.
Visit our Privacy Policy to learn more. By continuing to use the site, you agree to this use of cookies and data.
  • en France
  • Liste des pays
  • À 7 jours
  • Température de l'eau
  • Carte météo
  • Widgets météo
  • user-avatar
    Se connecter

    Météo par heure à Bridlington

    Ce jour, 19 Août, Lundi

    Heure Température Précipitation Vent Pression Humidité
    00:00 +12°C° 0 mm 7 m/s 751 mmHg 86%
    01:00 +12°C° 0 mm 7 m/s 751 mmHg 86%
    02:00 +12°C° 0 mm 7 m/s 751 mmHg 87%
    03:00 +12°C° 0 mm 7 m/s 751 mmHg 87%
    04:00 +12°C° 0 mm 7 m/s 752 mmHg 87%
    05:00 +11°C° 0 mm 7 m/s 752 mmHg 88%
    06:00 +11°C° 0 mm 7 m/s 753 mmHg 88%
    07:00 +14°C° 0 mm 7 m/s 753 mmHg 81%
    08:00 +15°C° 0 mm 7 m/s 754 mmHg 75%
    09:00 +16°C° 0 mm 7 m/s 754 mmHg 68%
    10:00 +17°C° 0 mm 6 m/s 755 mmHg 64%
    11:00 +19°C° 0 mm 6 m/s 755 mmHg 60%
    12:00 +19°C° 0 mm 6 m/s 755 mmHg 56%
    13:00 +19°C° 0.4 mm 6 m/s 756 mmHg 57%
    14:00 +19°C° 0.4 mm 6 m/s 756 mmHg 58%
    15:00 +18°C° 0.4 mm 7 m/s 756 mmHg 58%
    16:00 +17°C° 0.1 mm 6 m/s 756 mmHg 61%
    17:00 +16°C° 0.1 mm 6 m/s 756 mmHg 63%
    18:00 +16°C° 0.1 mm 6 m/s 757 mmHg 65%
    19:00 +15°C° 0 mm 6 m/s 757 mmHg 69%
    20:00 +13°C° 0 mm 6 m/s 758 mmHg 73%
    21:00 +12°C° 0 mm 5 m/s 758 mmHg 78%
    22:00 +12°C° 0 mm 5 m/s 758 mmHg 80%
    23:00 +12°C° 0 mm 5 m/s 759 mmHg 82%

    Demain, 20 Août, Mardi

    Heure Température Précipitation Vent Pression Humidité
    00:00 +10°C° 0 mm 6 m/s 759 mmHg 83%
    01:00 +10°C° 0 mm 6 m/s 759 mmHg 85%
    02:00 +10°C° 0 mm 6 m/s 759 mmHg 87%
    03:00 +9°C° 0 mm 6 m/s 760 mmHg 89%
    04:00 +9°C° 0 mm 6 m/s 760 mmHg 87%
    05:00 +9°C° 0 mm 6 m/s 760 mmHg 86%
    06:00 +10°C° 0 mm 6 m/s 760 mmHg 85%
    07:00 +11°C° 0 mm 6 m/s 761 mmHg 82%
    08:00 +12°C° 0 mm 7 m/s 761 mmHg 78%
    09:00 +14°C° 0 mm 7 m/s 761 mmHg 75%
    10:00 +15°C° 0.2 mm 7 m/s 762 mmHg 73%
    11:00 +16°C° 0.2 mm 7 m/s 762 mmHg 71%
    12:00 +17°C° 0.2 mm 7 m/s 762 mmHg 69%
    13:00 +17°C° 0.3 mm 6 m/s 762 mmHg 67%
    14:00 +17°C° 0.3 mm 6 m/s 763 mmHg 65%
    15:00 +19°C° 0.3 mm 6 m/s 763 mmHg 63%
    16:00 +17°C° 0.1 mm 6 m/s 763 mmHg 65%
    17:00 +16°C° 0.1 mm 5 m/s 763 mmHg 66%
    18:00 +15°C° 0.1 mm 5 m/s 764 mmHg 67%
    19:00 +14°C° 0 mm 5 m/s 764 mmHg 73%
    20:00 +13°C° 0 mm 4 m/s 765 mmHg 78%
    21:00 +12°C° 0 mm 4 m/s 765 mmHg 83%
    22:00 +12°C° 0 mm 4 m/s 765 mmHg 85%
    23:00 +12°C° 0 mm 4 m/s 765 mmHg 87%

    Après-demain, 21 Août, Mercredi

    Heure Température Précipitation Vent Pression Humidité
    00:00 +12°C° 0 mm 3 m/s 765 mmHg 89%
    01:00 +11°C° 0 mm 3 m/s 765 mmHg 90%
    02:00 +11°C° 0 mm 3 m/s 765 mmHg 91%
    03:00 +11°C° 0 mm 3 m/s 765 mmHg 93%
    04:00 +11°C° 0 mm 3 m/s 765 mmHg 92%
    05:00 +12°C° 0 mm 4 m/s 765 mmHg 91%
    06:00 +12°C° 0 mm 4 m/s 765 mmHg 91%
    07:00 +13°C° 0 mm 4 m/s 765 mmHg 86%
    08:00 +15°C° 0 mm 4 m/s 765 mmHg 80%
    09:00 +16°C° 0 mm 5 m/s 765 mmHg 75%
    10:00 +17°C° 0 mm 5 m/s 765 mmHg 69%
    11:00 +19°C° 0 mm 5 m/s 764 mmHg 63%
    12:00 +21°C° 0 mm 6 m/s 764 mmHg 57%
    13:00 +21°C° 0 mm 6 m/s 764 mmHg 56%
    14:00 +21°C° 0 mm 6 m/s 764 mmHg 55%
    15:00 +21°C° 0 mm 7 m/s 763 mmHg 54%
    16:00 +20°C° 0.1 mm 6 m/s 763 mmHg 59%
    17:00 +19°C° 0.1 mm 6 m/s 763 mmHg 63%
    18:00 +17°C° 0.1 mm 6 m/s 763 mmHg 68%
    19:00 +16°C° 0.1 mm 5 m/s 762 mmHg 70%
    20:00 +15°C° 0.1 mm 5 m/s 762 mmHg 73%
    21:00 +15°C° 0.1 mm 4 m/s 762 mmHg 76%
    22:00 +14°C° 0.1 mm 5 m/s 762 mmHg 78%
    23:00 +14°C° 0.1 mm 5 m/s 762 mmHg 80%

    22 Août, Jeudi

    Heure Température Précipitation Vent Pression Humidité
    00:00 +14°C° 0.1 mm 5 m/s 762 mmHg 82%
    01:00 +13°C° 0.1 mm 5 m/s 762 mmHg 83%
    02:00 +13°C° 0.1 mm 6 m/s 762 mmHg 85%
    03:00 +13°C° 0.1 mm 6 m/s 761 mmHg 87%
    04:00 +13°C° 0 mm 6 m/s 762 mmHg 87%
    05:00 +13°C° 0 mm 6 m/s 762 mmHg 88%
    06:00 +13°C° 0 mm 6 m/s 762 mmHg 88%
    07:00 +14°C° 0 mm 5 m/s 762 mmHg 81%
    08:00 +15°C° 0 mm 5 m/s 763 mmHg 73%
    09:00 +16°C° 0 mm 5 m/s 763 mmHg 66%
    10:00 +17°C° 0 mm 5 m/s 763 mmHg 62%
    11:00 +19°C° 0 mm 4 m/s 763 mmHg 59%
    12:00 +19°C° 0 mm 4 m/s 763 mmHg 55%
    13:00 +20°C° 0 mm 4 m/s 763 mmHg 54%
    14:00 +20°C° 0 mm 5 m/s 763 mmHg 52%
    15:00 +21°C° 0 mm 5 m/s 762 mmHg 50%
    16:00 +20°C° 0 mm 5 m/s 762 mmHg 54%
    17:00 +20°C° 0 mm 5 m/s 762 mmHg 58%
    18:00 +19°C° 0 mm 5 m/s 762 mmHg 62%
    19:00 +19°C° 0 mm 6 m/s 763 mmHg 67%
    20:00 +17°C° 0 mm 6 m/s 763 mmHg 71%
    21:00 +16°C° 0 mm 6 m/s 763 mmHg 76%
    22:00 +16°C° 0 mm 6 m/s 763 mmHg 79%
    23:00 +16°C° 0 mm 6 m/s 763 mmHg 82%

    23 Août, Vendredi

    Heure Température Précipitation Vent Pression Humidité
    00:00 +15°C° 0 mm 6 m/s 763 mmHg 85%
    01:00 +15°C° 0 mm 6 m/s 763 mmHg 86%
    02:00 +15°C° 0 mm 6 m/s 762 mmHg 87%
    03:00 +15°C° 0 mm 6 m/s 762 mmHg 88%
    04:00 +15°C° 0 mm 6 m/s 762 mmHg 88%
    05:00 +15°C° 0 mm 6 m/s 762 mmHg 88%
    06:00 +15°C° 0 mm 6 m/s 763 mmHg 88%
    07:00 +16°C° 0 mm 6 m/s 763 mmHg 83%
    08:00 +19°C° 0 mm 6 m/s 763 mmHg 78%
    09:00 +20°C° 0 mm 6 m/s 763 mmHg 73%
    10:00 +21°C° 0 mm 6 m/s 763 mmHg 70%
    11:00 +22°C° 0 mm 6 m/s 763 mmHg 66%
    12:00 +23°C° 0 mm 6 m/s 763 mmHg 63%
    13:00 +23°C° 0 mm 5 m/s 762 mmHg 62%
    14:00 +23°C° 0 mm 5 m/s 762 mmHg 61%
    15:00 +25°C° 0 mm 4 m/s 762 mmHg 60%
    16:00 +23°C° 0.1 mm 4 m/s 762 mmHg 64%
    17:00 +22°C° 0.1 mm 4 m/s 762 mmHg 69%
    18:00 +21°C° 0.1 mm 4 m/s 762 mmHg 73%
    19:00 +20°C° 0.1 mm 3 m/s 762 mmHg 76%
    20:00 +19°C° 0.1 mm 3 m/s 762 mmHg 80%
    21:00 +19°C° 0.1 mm 3 m/s 762 mmHg 83%
    22:00 +18°C° 0 mm 3 m/s 762 mmHg 85%
    23:00 +18°C° 0 mm 3 m/s 762 mmHg 87%

    24 Août, Samedi

    Heure Température Précipitation Vent Pression Humidité
    00:00 +17°C° 0 mm 3 m/s 762 mmHg 88%
    01:00 +17°C° 0 mm 3 m/s 762 mmHg 89%
    02:00 +17°C° 0 mm 3 m/s 762 mmHg 90%
    03:00 +16°C° 0 mm 3 m/s 761 mmHg 91%
    04:00 +17°C° 0 mm 2 m/s 761 mmHg 91%
    05:00 +17°C° 0 mm 2 m/s 761 mmHg 90%
    06:00 +17°C° 0 mm 2 m/s 761 mmHg 89%
    07:00 +18°C° 0 mm 3 m/s 761 mmHg 83%
    08:00 +20°C° 0 mm 3 m/s 761 mmHg 77%
    09:00 +21°C° 0 mm 3 m/s 761 mmHg 72%
    10:00 +22°C° 0 mm 4 m/s 761 mmHg 66%
    11:00 +23°C° 0 mm 4 m/s 760 mmHg 60%
    12:00 +25°C° 0 mm 5 m/s 760 mmHg 55%
    13:00 +25°C° 0 mm 5 m/s 760 mmHg 52%
    14:00 +26°C° 0 mm 5 m/s 759 mmHg 49%
    15:00 +26°C° 0 mm 5 m/s 759 mmHg 46%
    16:00 +25°C° 0 mm 5 m/s 759 mmHg 51%
    17:00 +23°C° 0 mm 5 m/s 758 mmHg 57%
    18:00 +21°C° 0 mm 5 m/s 758 mmHg 63%
    19:00 +21°C° 0 mm 5 m/s 758 mmHg 64%
    20:00 +20°C° 0 mm 5 m/s 758 mmHg 66%
    21:00 +20°C° 0 mm 5 m/s 758 mmHg 67%
    22:00 +19°C° 0 mm 5 m/s 758 mmHg 71%
    23:00 +17°C° 0 mm 5 m/s 757 mmHg 75%
    Voir plus